TimeCDT,TemperatureF,Dew PointF,Humidity,Sea Level PressureIn,VisibilityMPH,Wind Direction,Wind SpeedMPH,Gust SpeedMPH,PrecipitationIn,Events,Conditions,WindDirDegrees,DateUTC
12:15 AM,37.4,28.4,70,29.99,10.0,South,8.1,-,N/A,,Mostly Cloudy,170,2012-10-11 05:15:00
12:35 AM,39.2,30.2,70,29.98,10.0,South,9.2,-,N/A,,Overcast,170,2012-10-11 05:35:00
12:55 AM,39.2,30.2,70,29.97,10.0,South,10.4,-,N/A,,Overcast,180,2012-10-11 05:55:00
1:15 AM,39.2,30.2,70,29.97,10.0,South,10.4,-,N/A,,Overcast,190,2012-10-11 06:15:00
1:35 AM,41.0,28.4,61,29.95,10.0,South,12.7,18.4,N/A,,Overcast,180,2012-10-11 06:35:00
1:55 AM,41.0,30.2,65,29.93,10.0,South,11.5,-,N/A,,Overcast,180,2012-10-11 06:55:00
2:15 AM,41.0,28.4,61,29.92,10.0,South,10.4,-,N/A,,Overcast,170,2012-10-11 07:15:00
2:35 AM,41.0,28.4,61,29.91,10.0,South,10.4,-,N/A,,Overcast,170,2012-10-11 07:35:00
2:55 AM,41.0,28.4,61,29.89,10.0,South,12.7,18.4,N/A,,Overcast,170,2012-10-11 07:55:00
3:15 AM,42.8,28.4,57,29.87,10.0,South,17.3,21.9,N/A,,Overcast,180,2012-10-11 08:15:00
3:35 AM,42.8,28.4,57,29.88,10.0,South,11.5,20.7,N/A,,Overcast,180,2012-10-11 08:35:00
3:55 AM,42.8,28.4,57,29.85,10.0,South,21.9,-,N/A,,Overcast,190,2012-10-11 08:55:00
4:15 AM,42.8,28.4,57,29.86,10.0,SSW,19.6,25.3,N/A,,Overcast,210,2012-10-11 09:15:00
4:35 AM,42.8,30.2,61,29.87,10.0,SSW,12.7,20.7,N/A,,Light Drizzle,210,2012-10-11 09:35:00
4:55 AM,42.8,30.2,61,29.86,10.0,SSW,11.5,-,N/A,,Overcast,200,2012-10-11 09:55:00
5:15 AM,42.8,30.2,61,29.86,10.0,SSW,10.4,-,N/A,,Overcast,200,2012-10-11 10:15:00
5:35 AM,42.8,30.2,61,29.86,10.0,SSW,12.7,-,N/A,,Overcast,200,2012-10-11 10:35:00
7:50 AM,46.4,30.2,53,29.89,10.0,WSW,10.4,-,N/A,,Overcast,240,2012-10-11 12:50:00
9:45 AM,44.6,32.0,61,29.96,10.0,NW,18.4,21.9,N/A,,Mostly Cloudy,320,2012-10-11 14:45:00
10:45 AM,42.8,33.8,70,30.01,10.0,NNW,13.8,20.7,N/A,,Overcast,330,2012-10-11 15:45:00
11:55 AM,42.8,33.8,70,30.04,10.0,NW,13.8,-,N/A,,Overcast,320,2012-10-11 16:55:00
12:45 PM,46.4,30.2,53,30.04,10.0,WNW,15.0,21.9,N/A,,Mostly Cloudy,300,2012-10-11 17:45:00
1:45 PM,46.4,26.6,46,30.05,10.0,NW,17.3,20.7,N/A,,Mostly Cloudy,320,2012-10-11 18:45:00
2:45 PM,46.4,23.0,40,30.07,10.0,NW,16.1,24.2,N/A,,Scattered Clouds,310,2012-10-11 19:45:00
4:45 PM,48.2,15.8,27,30.11,10.0,NW,18.4,24.2,N/A,,Scattered Clouds,320,2012-10-11 21:45:00
5:45 PM,42.8,19.4,39,30.15,10.0,NW,11.5,16.1,N/A,,Scattered Clouds,320,2012-10-11 22:45:00
6:45 PM,39.2,21.2,49,30.18,10.0,NW,9.2,-,N/A,,Clear,320,2012-10-11 23:45:00
8:45 PM,35.6,21.2,56,30.25,10.0,NNW,8.1,-,N/A,,Clear,340,2012-10-12 01:45:00
9:50 PM,33.8,17.6,52,30.28,10.0,NW,8.1,-,N/A,,Clear,320,2012-10-12 02:50:00
10:15 PM,32.0,23.0,69,30.28,10.0,NW,6.9,-,N/A,,Clear,320,2012-10-12 03:15:00
11:35 PM,30.2,23.0,75,30.31,10.0,NW,6.9,-,N/A,,Clear,320,2012-10-12 04:35:00
11:55 PM,30.2,23.0,75,30.31,10.0,NW,5.8,-,N/A,,Clear,310,2012-10-12 04:55:00